Location: Champs
(48.8539°N, 2.6040°E)
Time: 18:30:31
(UTC+00:00)

DMSP 5D-2 F13 DEB - Pass Details

Date: 16 August 2022
Orbit: 710 x 775 km, 98.8° (Epoch: 23 September)

Event Time Altitude Azimuth Distance (km) Brightness Sun altitude
Exits shadow 00:18:33 24° 276° (W) 1,577 ? -27.1°
Drops below altitude 10° 00:22:13 10° 321° (NW) 2,340 ? -27.0°
Sets 00:25:00 0° 335° (NNW) 3,276 ? -27.0°
